Regional Weather Roundup
Issued by NWS Memphis, TN

Home | Current Version | Previous Version | Text Only | Print | Product List | Glossary On
Versions: 1 2 3 4 5 6 7 8 9 10 11 12 13 14 15 16 17 18 19 20 21 22 23 24 25 26 27 28 29 30 31 32 33 34 35 36 37 38 39 40 41 42 43 44 45 46 47 48 49 50
000
ASUS44 KMEG 180710
RWRMEG
MEMPHIS CWA HOURLY WEATHER ROUNDUP
NATIONAL WEATHER SERVICE MEMPHIS TN
200 AM CDT THU SEP 18 2014

...WEST TENNESSEE...

CITY           SKY/WX    TMP DP  RH WIND       PRES   REMARKS
MEMPHIS INTL   CLOUDY    69  64  84 CALM      29.94S
NWS MEMPHIS      N/A     65 N/A N/A MISG        N/A
JACKSON        MOCLDY    63  60  90 CALM      29.95F
LEXINGTON      MOCLDY    61  59  94 CALM      29.96S
SAVANNAH       CLOUDY    63  63 100 CALM      29.96F
DYERSBURG      CLOUDY    64  54  68 CALM      29.96S
UNION CITY     PTCLDY    57  57 100 CALM      29.95F
PARIS          PTCLDY    55  54  94 CALM      29.98R
HUNTINGDON     CLOUDY    59  58  96 CALM      29.96F


...EASTERN ARKANSAS...

CITY           SKY/WX    TMP DP  RH WIND       PRES   REMARKS
JONESBORO      CLOUDY    62  62 100 NE3       29.95S
WEST MEMPHIS   CLOUDY    65  65 100 CALM      29.92S
BATESVILLE     CLOUDY    63  61  94 E5        29.95S
NEWPORT        CLOUDY    61  61 100 CALM      29.95F FOG
WALNUT RIDGE   CLOUDY    63  61  94 N5        29.95S
BLYTHEVILLE    CLOUDY    65  63  93 CALM      29.95S
SEARCY         CLOUDY    64  63  97 NE6       29.94S
STUTTGART      CLOUDY    70  66  88 E5        29.92S
PINE BLUFF     CLOUDY    71  69  93 SE3       29.90F
MONTICELLO     CLOUDY    72  69  90 CALM      29.91R


...NORTH MISSISSIPPI...

CITY           SKY/WX    TMP DP  RH WIND       PRES   REMARKS
TUPELO         MOCLDY    68  65  90 CALM      29.94F
OXFORD         MOCLDY    68  64  88 SE5       29.95F
OLIVE BRANCH   CLEAR     64  64 100 CALM      29.94S
CLARKSDALE       N/A     68  68 100 CALM      29.93S
CORINTH          N/A     63  59  88 CALM      29.94F
GRENADA        MOCLDY    72  64  78 E5        29.94S
GREENWOOD      MOCLDY    73  67  81 CALM      29.92R
COLUMBUS       PTCLDY    66  65  98 N2        29.95R
STARKVILLE     FAIR      64  63  94 CALM      29.94S
GOLDEN TRIANGL PTCLDY    66  63  88 CALM      29.95S


...SOUTHEAST MISSOURI...

CITY           SKY/WX    TMP DP  RH WIND       PRES   REMARKS
WEST PLAINS    FOG       60  59  96 E6        29.97F VSB 1/2
POPLAR BLUFF   CLOUDY    62  58  86 CALM      29.95F FOG
CAPE GIRARDEAU CLOUDY    60  58  92 CALM      29.97S FOG


...NORTHWEST ALABAMA...

CITY           SKY/WX    TMP DP  RH WIND       PRES   REMARKS
MUSCLE SHOALS  MOCLDY    63  59  87 CALM      29.97S


...MIDDLE TENNESSEE...

CITY           SKY/WX    TMP DP  RH WIND       PRES   REMARKS
NASHVILLE      CLOUDY    64  59  83 CALM      29.99S
CLARKSVILLE    PTCLDY    60  57  89 CALM      29.98S
DICKSON        PTCLDY    55  55 100 CALM      29.98S
COLUMBIA       PTCLDY    59  59 100 CALM      29.96F
LEWISBURG      MOCLDY    57  56  97 CALM      29.98F


...WESTERN KENTUCKY...

CITY           SKY/WX    TMP DP  RH WIND       PRES   REMARKS
PADUCAH        MOCLDY    61  56  83 NE3       29.97S
FORT CAMPBELL  PTCLDY    60  60 100 CALM      29.98S


...CENTRAL ARKANSAS...

CITY           SKY/WX    TMP DP  RH WIND       PRES   REMARKS
LITTLE ROCK    CLOUDY    73  69  87 E5        29.91F


SKY/WX REPORTED AS FAIR MEANS FEW OR NO CLOUDS BELOW
12 THOUSAND FEET.



USA.gov is the U.S. government's official web portal to all federal, state and local government web resources and services.